Regional Weather Roundup
Issued by NWS

Home | Current Version | Previous Version | Text Only | Print | Product List | Glossary Off
Versions: 1 2 3 4 5 6 7 8 9 10 11 12 13 14 15 16 17 18 19 20 21 22 23 24 25 26 27 28 29 30 31 32 33 34 35 36 37 38 39 40 41 42 43 44 45 46 47 48 49 50

000
ASUS43 KIND 112159
RWRIN

WEATHER ROUNDUP FOR INDIANA
NATIONAL WEATHER SERVICE INDIANAPOLIS IN
500 PM EST MON DEC 11 2017

NOTE: "FAIR" INDICATES FEW OR NO CLOUDS BELOW 12,000 FEET WITH NO
SIGNIFICANT WEATHER AND/OR OBSTRUCTIONS TO VISIBILITY.

* - STATION DOES NOT REPORT WEATHER SUCH AS PRECIPITATION OR FOG.

+ - STATION NOT QUALITY CONTROLLED BY THE NATIONAL WEATHER SERVICE.
    USE DATA WITH CAUTION...ESPECIALLY DEWPOINT AND RELATIVE
    HUMIDITY OBSERVATIONS.

INZ001>003-010>013-019-020-112300-
NORTHWEST INDIANA

CITY           SKY/WX    TMP DP  RH WIND       PRES   REMARKS
GARY /AIRPORT/ CLOUDY    39  25  56 SE6       29.69R WCI  35
MICHIGAN CITY+ CLOUDY    32  27  80 SE5       29.70R WCI  27
MONTICELLO +   MOCLDY    40  26  58 E6        29.65F WCI  35

$$

LMZ046-743>745-112300-
SOUTHERN LAKE MICHIGAN

STATION/POSITION TIME  TEMP    WIND        PRES    WAVE
                       AIR SEA DIR/SP/G            HT
                 (UTC) (F)     (DEG/KT/KT) (MB)    (FT)
BURNS HARBOR     2140   36     130/  3/ 11 1005.8R
MICHIGAN CITY    2130   33     120/  9/ 11   N/A

$$

INZ004-005-014>016-021>024-112300-
NORTH CENTRAL INDIANA

CITY           SKY/WX    TMP DP  RH WIND       PRES   REMARKS
ELKHART        CLOUDY    32  25  74 SE7       29.70F WCI  26
GOSHEN         PTCLDY    33  26  75 SE6       29.70F WCI  28
PERU/GRISSOM   CLOUDY    36  30  78 SE9       29.67F WCI  29
SOUTH BEND     CLOUDY    31  26  82 SE9       29.71S WCI  23

$$

INZ006>009-017-018-025>027-112300-
NORTHEAST INDIANA

CITY           SKY/WX    TMP DP  RH WIND       PRES   REMARKS
FORT WAYNE     CLOUDY    34  28  79 SE9       29.73F WCI  27
KENDALLVILLE + CLOUDY    32  26  80 SE12      29.71F WCI  23

$$

INZ028-029-035-036-043>045-051>053-112300-
WEST CENTRAL INDIANA

CITY           SKY/WX    TMP DP  RH WIND       PRES   REMARKS
GREENCASTLE +  CLOUDY    45  30  57 S5        29.67F
LAFAYETTE      CLOUDY    44  29  55 S7        29.64F
TERRE HAUTE    CLEAR     49  30  48 SW9       29.67F

$$

INZ030>032-037>040-046>048-054>057-064-065-112300-
CENTRAL INDIANA

CITY           SKY/WX    TMP DP  RH WIND       PRES   REMARKS
COLUMBUS       CLEAR     45  25  45 S9        29.71F
INDIANAPOLIS   MOCLDY    46  28  49 SE8       29.67F
-EAGLE CREEK   CLOUDY    46  27  47 S8        29.66F
KOKOMO +       PTCLDY    37  28  70 SE10      29.68F WCI  30
MT COMFORT *+  CLOUDY    41  32  70 S8        29.70S
SHELBYVILLE    CLOUDY    45  27  49 S13       29.71S

$$

INZ033-034-041-042-049-050-058-059-112300-
EAST CENTRAL INDIANA

CITY           SKY/WX    TMP DP  RH WIND       PRES   REMARKS
MUNCIE         CLOUDY    39  28  64 SE6       29.72S WCI  35
RICHMOND +     CLOUDY    36  30  80 SE8       29.74F WCI  29

$$

INZ060-061-067>069-081>083-085>088-112300-
SOUTHWEST INDIANA

CITY           SKY/WX    TMP DP  RH WIND       PRES   REMARKS
EVANSVILLE     CLOUDY    53  32  44 SW12      29.75S
HUNTINGBURG +  CLOUDY    52  32  46 S13       29.75R

$$

INZ062-063-066-070>080-084-089>092-112300-
SOUTH CENTRAL AND SOUTHEAST INDIANA

CITY           SKY/WX    TMP DP  RH WIND       PRES   REMARKS
BLOOMINGTON    CLOUDY    48  29  47 S9        29.68F
SEYMOUR +      CLOUDY    48  30  49 S8        29.72S

$$





USA.gov is the U.S. government's official web portal to all federal, state and local government web resources and services.